OBJECT G, 44316

Orbit data source: Space-Track

You're viewing an Uncataloged Satellite

Recently launched and/or uncataloged satellites may have evolving metadata. Metadata may include but not limited to: Owner, Maufacturer, Bus, Motor, and Mission.

OBJECT G, 44316 is a Chinese satellite in LEO that was launched on Wed, 05 Jun 2019 UTC via a CHANG ZHENG 11 launch vehicle from the Yellow Sea Launch Area, China (YSLA). Unknown objects in Earth's orbit typically refer to objects detected orbiting the Earth but have not yet been identified or cataloged. These objects could be anything from previously untracked satellites, spent rocket stages, debris from satellite collisions, or even natural meteoroids temporarily captured by Earth's gravity.

Loading next visibility...
Identifier
44316, 2019-032G
Orbit
LEO
Country
Flag of CNCN / PRC
Related business
None
Manufacturer
Unknown
Mission
Commercial Technology
Bus & Motor
Unknown
Mass
Unknown
Launch date (UTC)
2019-06-05 (7 years ago)
Launch vehicle
CHANG ZHENG 11
Launch site
Yellow Sea Launch Area, China (YSLA)
Object type
Unknown
Shape & HBR
Box, 0.5 m
Radar Cross Section
1.500 m², Medium (>0.1 m² and < 1m²)

Expand to show TLE details & history
Last TLE update: 6 hours ago

TLE from 6 hours ago
0 OBJECT G
1 44316U 19032G   25352.94169825  .00011472  00000-0  49592-3 0  9991
2 44316  44.9778 321.6277 0011064 311.2877  48.7050 15.22557200359569
Epoch: 2025-12-18T22:36Z
TLE epoch observation values (Epoch: 2025-12-18T22:36:02.728Z)
Latitude
-0.00007°
Longitude
-105.17371°
Altitude
493.111 km
Speed
7.623 km/s
True Right ascension
21h 26m 30s
True Declination
0° 00' 00"
Sunlit
Object was in daylight at epoch
Visualization orbit readout
Latitude
Unknown
Longitude
Unknown
Altitude
Unknown
Speed
Unknown
Apparent Right ascension
Unknown
Apparent Declination
Unknown
Sunlit
N/A
Visualization observer readout
Local Sidereal Time
03:07:34
Azimuth
Unknown
Elevation
Unknown
Doppler factor
Unknown
Orbital elements
Apogee altitude
507.35 km
Perigee altitude
492.13 km
Semi-major axis
6,877.877 km
Eccentricity
0.00111
Inclination
44.9778°
RAAN
321.6277°
Arg. of periapsis
311.2877°
True anomaly
48.80034°
Mean anomaly
48.705°
Eccentric anomaly
48.75266°
Mean motion
3.80506 °/min
Orbital period
94.61 mins
BSTAR
0.00049592
Loading maneuver chart data...
Computing Atmospheric mass density...
Loading historical data...
Loading historical data...
Loading historical data...
Loading historical data...
Loading historical data...
Loading historical data...
Loading historical data...

Documentation

Showing up to 5 results
|